Dewpoint
51 51 52 53 55 57 60 63 65 68 68 68 69 69 70 71 71 71 70 70 70 70 70 70 71 71 72 71 71 71 69 65 63
49 51 52 53 55 57 59 62 65 67 69 68 70 70 70 70 71 70 72 72 71 70 70 71 71 72 72 72 72 71 68 65 62
44 49 52 53 55 57 59 62 66 67 68 70 70 70 71 71 71 71 71 72 72 71 71 71 71 71 70 69 70 69 67 65 63
45 49 52 53 57 59 61 64 68 68 68 68 70 70 70 70 72 73 72 72 72 72 72 71 69 68 67 67 67 69 68 66 64
45 50 52 57 59 61 63 65 68 69 69 69 70 71 71 71 71 70 71 73 73 73 72 71 70 70 69 67 66 68 67 67 67
59 62 64 66 66 64 63 66 69 71 71 71 70 71 71 70 70 70 70 70 70 70 71 72 70 69 68 65 65 66 67 67 68
66 67 69 70 71 71 71 70 70 70 70 70 70 70 69 69 69 68 68 68 69 69 69 70 69 66 65 65 66 68 70 69 68
67 69 70 70 70 70 70 69 69 69 68 68 68 67 67 67 67 67 67 67 67 67 68 67 67 64 64 64 65 67 66 67 66
67 68 69 69 69 69 69 68 68 68 67 67 67 66 66 65 64 64 64 64 64 64 64 65 68 68 67 67 67 66 67 68 67
67 67 68 68 68 67 67 67 67 66 66 66 65 64 63 62 61 61 62 63 63 63 62 62 62 62 63 63 63 63 64 66 67
66 67 67 67 66 66 66 66 66 65 65 64 63 61 60 60 60 61 61 62 60 59 59 60 60 61 61 61 61 61 63 61 58
67 67 67 66 66 65 64 64 64 64 64 64 62 60 59 59 59 59 60 60 59 59 59 60 60 60 59 59 59 59 59 58 57
67 67 67 66 66 65 64 63 62 63 63 63 62 61 61 60 59 59 58 58 59 58 59 59 59 58 58 58 58 58 58 57 56
66 66 66 66 65 63 62 62 62 62 62 62 63 63 62 61 60 59 58 57 57 57 57 57 57 57 57 56 57 57 57 57 58
65 65 64 65 64 63 63 63 62 62 63 63 62 61 59 58 59 61 59 57 56 56 55 54 54 54 54 55 55 56 56 56 57
64 64 64 65 64 62 62 63 63 63 63 61 60 58 57 56 56 56 56 56 56 56 55 54 53 53 52 52 54 54 55 56 57
64 64 64 65 63 62 62 63 63 63 64 61 59 58 55 55 54 54 55 55 55 55 55 54 52 53 52 51 51 51 52 52 52
63 64 64 64 63 62 62 63 64 64 64 61 57 56 55 54 53 53 52 51 52 53 49 50 50 49 49 50 51 51 46 47 50
64 63 64 63 62 62 62 62 62 63 64 62 60 58 57 56 54 54 53 53 52 48 46 45 45 47 48 49 47 45 44 43 43
62 64 64 63 62 61 61 62 62 62 60 61 60 60 60 59 56 55 54 53 51 48 47 46 43 42 46 45 46 42 41 41 44
Lifted_Index
-0 -1 -1 -1 -1 -2 -2 -2 -3 -4 -4 -4 -4 -5 -5 -5 -6 -6 -5 -5 -6 -5 -5 -5 -6 -6 -6 -6 -5 -5 -5 -4 -3
-0 -0 -1 -1 -2 -2 -2 -3 -3 -4 -4 -5 -5 -5 -5 -5 -5 -5 -5 -6 -6 -6 -6 -6 -6 -6 -5 -5 -5 -5 -5 -4 -3
0 -0 -1 -1 -2 -2 -2 -3 -3 -4 -5 -5 -5 -5 -5 -5 -5 -5 -5 -6 -6 -6 -6 -6 -6 -5 -5 -4 -4 -4 -4 -4 -3
-0 -0 -0 -1 -1 -2 -2 -3 -4 -4 -5 -5 -5 -5 -5 -5 -5 -5 -6 -6 -6 -6 -6 -6 -5 -4 -3 -3 -2 -2 -3 -3 -3
-1 -1 -1 -1 -2 -2 -2 -3 -4 -4 -5 -5 -5 -5 -5 -5 -5 -5 -6 -6 -6 -6 -6 -5 -5 -4 -2 -2 -1 -1 -1 -2 -2
-2 -2 -3 -3 -3 -3 -3 -3 -4 -5 -5 -5 -5 -5 -5 -5 -5 -5 -6 -6 -6 -6 -5 -5 -4 -3 -3 -2 -1 -0 -1 -2 -2
-4 -5 -5 -5 -5 -5 -4 -4 -4 -5 -5 -5 -5 -5 -5 -5 -5 -5 -5 -5 -5 -5 -4 -4 -3 -3 -2 -1 0 0 -1 -2 -2
-6 -6 -6 -6 -6 -5 -5 -4 -4 -5 -5 -5 -5 -5 -5 -4 -4 -4 -3 -3 -3 -2 -2 -2 -1 -1 -1 -1 0 0 -1 -1 -2
-7 -6 -6 -6 -5 -5 -5 -4 -4 -4 -4 -4 -4 -3 -3 -2 -2 -1 -0 1 1 1 1 1 0 0 -0 0 0 0 -0 -1 -1
-6 -6 -5 -5 -5 -4 -4 -3 -3 -2 -2 -1 -1 0 1 2 2 3 3 3 3 3 3 2 2 2 2 1 1 1 0 -1 -1
-6 -5 -5 -4 -3 -2 -2 -1 -0 0 1 1 2 3 4 5 5 5 5 5 5 5 4 4 3 3 3 2 2 1 1 1 0
-5 -4 -3 -2 -1 -1 0 1 1 2 2 3 3 4 5 5 6 6 6 6 7 6 6 5 4 4 3 3 3 3 3 2 2
-3 -3 -2 -1 -0 0 1 2 2 2 2 3 3 4 5 5 6 7 7 7 8 8 7 6 5 5 5 5 5 4 4 4 3
-2 -2 -1 -1 0 1 2 2 2 2 2 2 3 3 4 5 6 7 7 8 8 8 7 7 6 6 6 6 6 6 5 5 5
-1 -1 -0 -0 0 1 2 2 1 1 2 2 3 4 5 6 6 7 7 7 7 7 7 7 7 7 7 6 6 6 6 6 6
-1 -1 -0 -0 0 1 1 1 1 1 1 3 4 5 6 7 6 6 6 7 7 7 7 7 7 7 7 7 6 6 6 6 6
-1 -1 -0 -0 0 1 1 1 0 0 1 3 4 5 6 6 5 5 5 6 6 6 7 8 9 9 9 8 7 7 7 7 7
-1 -1 -1 -0 0 1 1 0 0 0 1 3 4 5 4 4 4 4 5 5 6 7 8 9 10 11 10 9 9 8 8 7 7
-1 -1 -1 -0 0 1 1 0 0 1 1 2 3 3 3 3 3 4 4 5 6 7 8 9 11 11 11 11 10 10 9 8 7
-1 -1 -1 -0 0 1 1 1 1 1 1 2 2 3 3 3 3 3 4 5 6 7 7 9 11 11 11 11 11 11 10 8 8